Погода в Алворе

Португалия     37°07′54″N   8°35′28″W
темп.,
°C
ветер,
м/с
пор.,
м/с
влажн.,
%
обл.,
%
осадки,
мм/ч
давл.,
гПа
погр.,
м
18 января, пн
пн1800:00+7с226931 0.0 102726
03:00+6ссв23693 0.0 102632
06:00+6св126544 0.0 102528
09:00+9в116429 0.0 102630
12:00+14ююв225814 0.0 1027430
15:00+14ю32600 0.0 1024486
18:00+9ююв12890 0.0 102541
21:00+7всв12920 0.0 102631
19 января, вт
вт1900:00+8всв12951 0.0 102629
03:00+8всв129594 0.0 102431
06:00+9вюв129385 0.0 102450
09:00+10ююв238897 0.0 1024155
12:00+14юз467098 0.0 10241019
15:00+14ююз457081 0.0 1021984
18:00+11ююз378291 0.1 1020291
21:00+12ююз51080100 0.1 1019709
20 января, ср
ср2000:00+13ююз71181100 0.2 1017995
03:00+13ююз81384100 0.2 10141034
06:00+13юз101694100 7.2 10111249
09:00+13з5119177 3.8 1012860
12:00+15з8137149 4.4 10131633
15:00+14з8147630 1.1 10121401
18:00+12з5138220 1.3 1014852
21:00+11з411900 0.1 1016535
21 января, чт
чт2100:00+11зюз38930 0.1 1017291
03:00+11зюз39951 0.1 1018284
06:00+11зюз310962 0.4 1017370
09:00+13юз5119212 0.1 1018843
12:00+16юз8138130 0.2 10171048
15:00+16зюз71391100 1.1 1016962
18:00+14з41095100 1.6 1016566
21:00+13з3996100 0.1 1018469
22 января, пт
пт2200:00+13з41096100 0.2 1018513
03:00+13з4119583 0.4 1018603
06:00+11з399654 0.5 1018373
09:00+13з4119234 0.0 1020817
12:00+15сз7116818 0.2 10211487
15:00+15зсз695814 0.1 10211508
18:00+11сз4107910 0.1 1022411
21:00+9сз138780 0.0 102476